Time,TemperatureF,DewpointF,PressureIn,WindDirection,WindDirectionDegrees,WindSpeedMPH,WindSpeedGustMPH,Humidity,HourlyPrecipIn,Conditions,Clouds,dailyrainin,SoftwareType,DateUTC
2013-04-17 00:03:00,72.0,71.0,30.14,ENE,70,4.0,7.0,96,99.99,,,-99.99,,2013-04-17 04:03:00,
2013-04-17 00:13:00,72.0,71.0,30.14,ENE,70,4.0,7.0,96,99.99,,,-99.99,,2013-04-17 04:13:00,
2013-04-17 00:22:00,72.0,71.0,30.14,ENE,66,6.0,9.0,97,99.99,,,-99.99,,2013-04-17 04:22:00,
2013-04-17 00:33:00,72.0,71.0,30.14,East,79,5.0,7.0,98,99.99,,,-99.99,,2013-04-17 04:33:00,
2013-04-17 00:42:00,72.0,71.0,30.14,East,79,5.0,7.0,98,99.99,,,-99.99,,2013-04-17 04:42:00,
2013-04-17 00:52:00,71.0,71.0,30.14,ENE,73,6.0,8.0,99,99.99,,,-99.99,,2013-04-17 04:52:00,
2013-04-17 01:02:00,71.0,71.0,30.14,ENE,70,5.0,8.0,100,99.99,,,-99.99,,2013-04-17 05:02:00,
2013-04-17 01:12:00,71.0,71.0,30.14,ENE,70,5.0,8.0,100,99.99,,,-99.99,,2013-04-17 05:12:00,
2013-04-17 01:22:00,71.0,71.0,30.14,ENE,70,5.0,8.0,100,99.99,,,-99.99,,2013-04-17 05:22:00,
2013-04-17 01:32:00,71.0,71.0,30.14,ENE,70,5.0,8.0,100,99.99,,,-99.99,,2013-04-17 05:32:00,
2013-04-17 01:52:00,70.0,70.0,30.13,East,101,1.0,3.0,100,99.99,,,-99.99,,2013-04-17 05:52:00,
2013-04-17 02:02:00,69.0,69.0,30.13,North,0,0.0,0.0,100,99.99,,,-99.99,,2013-04-17 06:02:00,
2013-04-17 02:12:00,69.0,69.0,30.13,North,0,0.0,0.0,100,99.99,,,-99.99,,2013-04-17 06:12:00,
2013-04-17 02:22:00,69.0,69.0,30.12,North,0,0.0,0.0,100,99.99,,,-99.99,,2013-04-17 06:22:00,
2013-04-17 02:32:00,69.0,69.0,30.12,North,0,0.0,0.0,100,99.99,,,-99.99,,2013-04-17 06:32:00,
2013-04-17 02:42:00,69.0,69.0,30.12,North,0,0.0,0.0,100,99.99,,,-99.99,,2013-04-17 06:42:00,
2013-04-17 02:52:00,69.0,69.0,30.12,North,0,0.0,0.0,100,99.99,,,-99.99,,2013-04-17 06:52:00,
2013-04-17 03:02:00,68.0,68.0,30.11,ENE,59,1.0,3.0,100,99.99,,,-99.99,,2013-04-17 07:02:00,
2013-04-17 03:12:00,68.0,68.0,30.11,ENE,59,1.0,3.0,100,99.99,,,-99.99,,2013-04-17 07:12:00,
2013-04-17 03:22:00,68.0,68.0,30.11,ENE,76,1.0,4.0,100,99.99,,,-99.99,,2013-04-17 07:22:00,
2013-04-17 03:32:00,68.0,68.0,30.11,ENE,63,3.0,4.0,100,99.99,,,-99.99,,2013-04-17 07:32:00,
2013-04-17 03:42:00,68.0,68.0,30.11,ENE,63,3.0,4.0,100,99.99,,,-99.99,,2013-04-17 07:42:00,
2013-04-17 03:52:00,68.0,68.0,30.10,ENE,72,2.0,4.0,100,99.99,,,-99.99,,2013-04-17 07:52:00,
2013-04-17 04:02:00,68.0,68.0,30.10,ENE,66,2.0,5.0,100,99.99,,,-99.99,,2013-04-17 08:02:00,
2013-04-17 04:12:00,68.0,68.0,30.10,ENE,66,2.0,5.0,100,99.99,,,-99.99,,2013-04-17 08:12:00,
2013-04-17 04:22:00,67.0,67.0,30.10,ENE,60,3.0,6.0,100,99.99,,,-99.99,,2013-04-17 08:22:00,
2013-04-17 04:32:00,68.0,68.0,30.11,ENE,63,4.0,7.0,100,99.99,,,-99.99,,2013-04-17 08:32:00,
2013-04-17 04:42:00,68.0,68.0,30.11,ENE,63,4.0,7.0,100,99.99,,,-99.99,,2013-04-17 08:42:00,
2013-04-17 04:52:00,68.0,68.0,30.10,ENE,65,5.0,6.0,100,99.99,,,-99.99,,2013-04-17 08:52:00,
2013-04-17 05:02:00,68.0,68.0,30.10,ENE,60,5.0,7.0,100,99.99,,,-99.99,,2013-04-17 09:02:00,
2013-04-17 05:12:00,68.0,68.0,30.10,ENE,60,5.0,7.0,100,99.99,,,-99.99,,2013-04-17 09:12:00,
2013-04-17 05:22:00,68.0,68.0,30.10,NE,48,4.0,7.0,100,99.99,,,-99.99,,2013-04-17 09:22:00,
2013-04-17 05:33:00,68.0,68.0,30.10,NE,48,5.0,8.0,100,99.99,,,-99.99,,2013-04-17 09:33:00,
2013-04-17 05:42:00,68.0,68.0,30.10,NE,48,5.0,8.0,100,99.99,,,-99.99,,2013-04-17 09:42:00,
2013-04-17 05:52:00,68.0,68.0,30.10,NE,38,6.0,8.0,100,99.99,,,-99.99,,2013-04-17 09:52:00,
2013-04-17 06:02:00,68.0,68.0,30.10,NE,55,5.0,9.0,100,99.99,,,-99.99,,2013-04-17 10:02:00,
2013-04-17 06:12:00,68.0,68.0,30.10,NE,55,5.0,9.0,100,99.99,,,-99.99,,2013-04-17 10:12:00,
2013-04-17 06:23:00,68.0,68.0,30.10,ENE,73,5.0,7.0,100,99.99,,,-99.99,,2013-04-17 10:23:00,
2013-04-17 06:32:00,67.0,67.0,30.11,ESE,105,1.0,3.0,100,99.99,,,-99.99,,2013-04-17 10:32:00,
2013-04-17 06:42:00,67.0,67.0,30.11,ESE,105,1.0,3.0,100,99.99,,,-99.99,,2013-04-17 10:42:00,
2013-04-17 06:53:00,67.0,67.0,30.11,ENE,63,3.0,5.0,100,99.99,,,-99.99,,2013-04-17 10:53:00,
2013-04-17 07:02:00,66.0,66.0,30.11,ENE,76,2.0,3.0,100,99.99,,,-99.99,,2013-04-17 11:02:00,
2013-04-17 07:12:00,66.0,66.0,30.11,ENE,76,2.0,3.0,100,99.99,,,-99.99,,2013-04-17 11:12:00,
2013-04-17 07:22:00,66.0,66.0,30.12,ENE,72,2.0,5.0,100,99.99,,,-99.99,,2013-04-17 11:22:00,
2013-04-17 07:32:00,67.0,67.0,30.13,NE,55,5.0,8.0,100,99.99,,,-99.99,,2013-04-17 11:32:00,
2013-04-17 07:42:00,67.0,67.0,30.13,NE,55,5.0,8.0,100,99.99,,,-99.99,,2013-04-17 11:42:00,
2013-04-17 07:52:00,67.0,67.0,30.13,NE,53,6.0,10.0,100,99.99,,,-99.99,,2013-04-17 11:52:00,
2013-04-17 08:02:00,68.0,68.0,30.13,ENE,58,5.0,7.0,100,99.99,,,-99.99,,2013-04-17 12:02:00,
2013-04-17 08:12:00,68.0,68.0,30.13,ENE,58,5.0,7.0,100,99.99,,,-99.99,,2013-04-17 12:12:00,
2013-04-17 08:22:00,68.0,68.0,30.14,NE,52,6.0,10.0,100,99.99,,,-99.99,,2013-04-17 12:22:00,
2013-04-17 08:32:00,69.0,69.0,30.14,NE,48,5.0,8.0,100,99.99,,,-99.99,,2013-04-17 12:32:00,
2013-04-17 08:42:00,69.0,69.0,30.14,NE,48,5.0,8.0,100,99.99,,,-99.99,,2013-04-17 12:42:00,
2013-04-17 08:52:00,70.0,70.0,30.14,NE,45,6.0,8.0,100,99.99,,,-99.99,,2013-04-17 12:52:00,
2013-04-17 09:02:00,71.0,71.0,30.14,NE,51,7.0,11.0,100,99.99,,,-99.99,,2013-04-17 13:02:00,
2013-04-17 09:12:00,71.0,71.0,30.14,NE,51,7.0,11.0,100,99.99,,,-99.99,,2013-04-17 13:12:00,
2013-04-17 09:22:00,72.0,72.0,30.14,ENE,60,8.0,12.0,100,99.99,,,-99.99,,2013-04-17 13:22:00,
2013-04-17 09:32:00,74.0,73.0,30.13,ENE,62,6.0,10.0,96,99.99,,,-99.99,,2013-04-17 13:32:00,
2013-04-17 09:42:00,74.0,73.0,30.13,ENE,62,6.0,10.0,96,99.99,,,-99.99,,2013-04-17 13:42:00,
2013-04-17 09:52:00,75.0,70.0,30.13,ENE,69,6.0,13.0,85,99.99,,,-99.99,,2013-04-17 13:52:00,
2013-04-17 10:02:00,76.0,69.0,30.13,NE,56,9.0,15.0,79,99.99,,,-99.99,,2013-04-17 14:02:00,
2013-04-17 10:12:00,76.0,69.0,30.13,NE,56,9.0,15.0,79,99.99,,,-99.99,,2013-04-17 14:12:00,
2013-04-17 10:22:00,78.0,68.0,30.14,ENE,70,7.0,16.0,71,99.99,,,-99.99,,2013-04-17 14:22:00,
2013-04-17 10:32:00,78.0,66.0,30.13,NE,51,10.0,14.0,67,99.99,,,-99.99,,2013-04-17 14:32:00,
2013-04-17 10:42:00,79.0,67.0,30.13,ENE,68,7.0,11.0,67,99.99,,,-99.99,,2013-04-17 14:42:00,
2013-04-17 10:52:00,79.0,67.0,30.13,ENE,68,7.0,11.0,67,99.99,,,-99.99,,2013-04-17 14:52:00,
2013-04-17 11:02:00,80.0,65.0,30.13,ENE,70,8.0,18.0,61,99.99,,,-99.99,,2013-04-17 15:02:00,
2013-04-17 11:12:00,81.0,66.0,30.13,ENE,68,7.0,15.0,61,99.99,,,-99.99,,2013-04-17 15:12:00,
2013-04-17 11:22:00,81.0,66.0,30.13,ENE,68,7.0,15.0,61,99.99,,,-99.99,,2013-04-17 15:22:00,
2013-04-17 11:33:00,81.0,66.0,30.12,ENE,75,8.0,14.0,60,99.99,,,-99.99,,2013-04-17 15:33:00,
2013-04-17 11:43:00,81.0,66.0,30.12,ENE,75,8.0,14.0,60,99.99,,,-99.99,,2013-04-17 15:43:00,
2013-04-17 11:53:00,81.0,65.0,30.12,ENE,59,9.0,14.0,59,99.99,,,-99.99,,2013-04-17 15:53:00,
2013-04-17 12:03:00,82.0,66.0,30.11,ENE,66,9.0,14.0,58,99.99,,,-99.99,,2013-04-17 16:03:00,
2013-04-17 12:12:00,81.0,62.0,30.11,ENE,60,12.0,18.0,53,99.99,,,-99.99,,2013-04-17 16:12:00,
2013-04-17 12:23:00,81.0,62.0,30.11,ENE,60,12.0,18.0,53,99.99,,,-99.99,,2013-04-17 16:23:00,
2013-04-17 12:32:00,83.0,65.0,30.11,ENE,65,9.0,18.0,54,99.99,,,-99.99,,2013-04-17 16:32:00,
2013-04-17 12:42:00,83.0,65.0,30.11,ENE,65,9.0,18.0,54,99.99,,,-99.99,,2013-04-17 16:42:00,
2013-04-17 12:52:00,82.0,64.0,30.10,ENE,63,8.0,14.0,55,99.99,,,-99.99,,2013-04-17 16:52:00,
2013-04-17 13:02:00,84.0,64.0,30.10,NE,56,9.0,17.0,51,99.99,,,-99.99,,2013-04-17 17:02:00,
2013-04-17 13:12:00,84.0,64.0,30.10,NE,56,9.0,17.0,51,99.99,,,-99.99,,2013-04-17 17:12:00,
2013-04-17 13:22:00,83.0,64.0,30.09,NNE,32,11.0,17.0,53,99.99,,,-99.99,,2013-04-17 17:22:00,
2013-04-17 13:33:00,84.0,63.0,30.08,ENE,70,7.0,13.0,50,99.99,,,-99.99,,2013-04-17 17:33:00,
2013-04-17 13:42:00,84.0,63.0,30.08,ENE,70,7.0,13.0,50,99.99,,,-99.99,,2013-04-17 17:42:00,
2013-04-17 13:52:00,84.0,63.0,30.08,ENE,70,7.0,13.0,50,99.99,,,-99.99,,2013-04-17 17:52:00,
2013-04-17 14:02:00,83.0,62.0,30.07,ENE,59,8.0,13.0,50,99.99,,,-99.99,,2013-04-17 18:02:00,
2013-04-17 14:12:00,83.0,62.0,30.07,ENE,59,8.0,13.0,50,99.99,,,-99.99,,2013-04-17 18:12:00,
2013-04-17 14:22:00,85.0,62.0,30.07,ENE,60,7.0,13.0,47,99.99,,,-99.99,,2013-04-17 18:22:00,
2013-04-17 14:32:00,86.0,63.0,30.06,SE,142,7.0,15.0,46,99.99,,,-99.99,,2013-04-17 18:32:00,
2013-04-17 14:42:00,86.0,63.0,30.06,SE,142,7.0,15.0,46,99.99,,,-99.99,,2013-04-17 18:42:00,
2013-04-17 14:52:00,86.0,63.0,30.06,ENE,58,7.0,12.0,47,99.99,,,-99.99,,2013-04-17 18:52:00,
2013-04-17 15:02:00,85.0,64.0,30.06,NE,48,10.0,15.0,49,99.99,,,-99.99,,2013-04-17 19:02:00,
2013-04-17 15:12:00,85.0,64.0,30.06,NE,48,10.0,15.0,49,99.99,,,-99.99,,2013-04-17 19:12:00,
2013-04-17 15:22:00,85.0,64.0,30.06,NE,48,10.0,15.0,49,99.99,,,-99.99,,2013-04-17 19:22:00,
2013-04-17 15:32:00,86.0,62.0,30.05,ESE,103,7.0,10.0,44,99.99,,,-99.99,,2013-04-17 19:32:00,
2013-04-17 15:42:00,87.0,61.0,30.04,ENE,58,7.0,9.0,42,99.99,,,-99.99,,2013-04-17 19:42:00,
2013-04-17 15:52:00,87.0,61.0,30.04,ENE,58,7.0,9.0,42,99.99,,,-99.99,,2013-04-17 19:52:00,
2013-04-17 16:03:00,88.0,61.0,30.03,SE,139,7.0,12.0,40,99.99,,,-99.99,,2013-04-17 20:03:00,
2013-04-17 16:12:00,88.0,61.0,30.03,SE,139,7.0,12.0,40,99.99,,,-99.99,,2013-04-17 20:12:00,
2013-04-17 16:22:00,88.0,59.0,30.03,ENE,65,6.0,12.0,38,99.99,,,-99.99,,2013-04-17 20:22:00,
2013-04-17 16:32:00,87.0,61.0,30.03,ENE,62,8.0,16.0,42,99.99,,,-99.99,,2013-04-17 20:32:00,
2013-04-17 16:42:00,87.0,61.0,30.03,ENE,62,8.0,16.0,42,99.99,,,-99.99,,2013-04-17 20:42:00,
2013-04-17 16:52:00,87.0,60.0,30.03,ENE,69,8.0,13.0,41,99.99,,,-99.99,,2013-04-17 20:52:00,
2013-04-17 17:03:00,87.0,60.0,30.03,ENE,69,8.0,13.0,41,99.99,,,-99.99,,2013-04-17 21:03:00,
2013-04-17 17:12:00,87.0,60.0,30.03,ENE,69,8.0,13.0,41,99.99,,,-99.99,,2013-04-17 21:12:00,
2013-04-17 17:22:00,87.0,62.0,30.03,ENE,65,6.0,10.0,43,99.99,,,-99.99,,2013-04-17 21:22:00,
2013-04-17 17:33:00,87.0,62.0,30.03,ENE,65,6.0,10.0,43,99.99,,,-99.99,,2013-04-17 21:33:00,
2013-04-17 17:43:00,85.0,61.0,30.03,ENE,68,5.0,10.0,44,99.99,,,-99.99,,2013-04-17 21:43:00,
2013-04-17 17:53:00,85.0,61.0,30.03,ENE,68,5.0,10.0,44,99.99,,,-99.99,,2013-04-17 21:53:00,
2013-04-17 18:02:00,87.0,61.0,30.02,ENE,66,7.0,13.0,42,99.99,,,-99.99,,2013-04-17 22:02:00,
2013-04-17 18:13:00,85.0,61.0,30.03,ENE,66,6.0,10.0,45,99.99,,,-99.99,,2013-04-17 22:13:00,
2013-04-17 18:22:00,85.0,61.0,30.03,ENE,66,6.0,10.0,45,99.99,,,-99.99,,2013-04-17 22:22:00,
2013-04-17 18:33:00,85.0,62.0,30.03,ENE,68,6.0,9.0,46,99.99,,,-99.99,,2013-04-17 22:33:00,
2013-04-17 18:42:00,84.0,61.0,30.03,ENE,66,10.0,15.0,46,99.99,,,-99.99,,2013-04-17 22:42:00,
2013-04-17 18:53:00,84.0,61.0,30.03,ENE,66,10.0,15.0,46,99.99,,,-99.99,,2013-04-17 22:53:00,
2013-04-17 19:02:00,83.0,63.0,30.04,ENE,65,8.0,15.0,51,99.99,,,-99.99,,2013-04-17 23:02:00,
2013-04-17 19:12:00,83.0,64.0,30.04,East,93,6.0,10.0,52,99.99,,,-99.99,,2013-04-17 23:12:00,
2013-04-17 19:22:00,83.0,64.0,30.04,East,93,6.0,10.0,52,99.99,,,-99.99,,2013-04-17 23:22:00,
2013-04-17 19:32:00,82.0,64.0,30.04,ENE,68,6.0,10.0,54,99.99,,,-99.99,,2013-04-17 23:32:00,
2013-04-17 19:42:00,80.0,63.0,30.04,ENE,63,5.0,9.0,57,99.99,,,-99.99,,2013-04-17 23:42:00,
2013-04-17 19:52:00,80.0,63.0,30.04,ENE,63,5.0,9.0,57,99.99,,,-99.99,,2013-04-17 23:52:00,
2013-04-17 20:02:00,80.0,65.0,30.04,ENE,72,5.0,9.0,61,99.99,,,-99.99,,2013-04-18 00:02:00,
2013-04-17 20:12:00,78.0,64.0,30.04,East,84,6.0,9.0,62,99.99,,,-99.99,,2013-04-18 00:12:00,
2013-04-17 20:22:00,78.0,64.0,30.04,East,84,6.0,9.0,62,99.99,,,-99.99,,2013-04-18 00:22:00,
2013-04-17 20:32:00,78.0,64.0,30.04,ENE,77,5.0,11.0,63,99.99,,,-99.99,,2013-04-18 00:32:00,
2013-04-17 20:42:00,77.0,64.0,30.05,ESE,105,4.0,7.0,65,99.99,,,-99.99,,2013-04-18 00:42:00,
2013-04-17 20:52:00,77.0,64.0,30.05,ESE,105,4.0,7.0,65,99.99,,,-99.99,,2013-04-18 00:52:00,
2013-04-17 21:02:00,76.0,64.0,30.05,East,100,5.0,10.0,67,99.99,,,-99.99,,2013-04-18 01:02:00,
2013-04-17 21:12:00,76.0,65.0,30.06,ENE,69,6.0,10.0,69,99.99,,,-99.99,,2013-04-18 01:12:00,
2013-04-17 21:22:00,76.0,65.0,30.06,ENE,69,6.0,10.0,69,99.99,,,-99.99,,2013-04-18 01:22:00,
2013-04-17 21:32:00,75.0,65.0,30.06,ENE,66,5.0,9.0,71,99.99,,,-99.99,,2013-04-18 01:32:00,
2013-04-17 21:42:00,75.0,66.0,30.06,ENE,73,5.0,9.0,73,99.99,,,-99.99,,2013-04-18 01:42:00,
2013-04-17 21:52:00,75.0,66.0,30.06,ENE,73,5.0,9.0,73,99.99,,,-99.99,,2013-04-18 01:52:00,
2013-04-17 22:02:00,75.0,66.0,30.07,East,84,5.0,8.0,74,99.99,,,-99.99,,2013-04-18 02:02:00,
2013-04-17 22:12:00,74.0,66.0,30.07,ENE,73,5.0,8.0,75,99.99,,,-99.99,,2013-04-18 02:12:00,
2013-04-17 22:22:00,74.0,66.0,30.07,ENE,73,5.0,8.0,75,99.99,,,-99.99,,2013-04-18 02:22:00,
2013-04-17 22:32:00,74.0,66.0,30.08,ENE,70,3.0,5.0,77,99.99,,,-99.99,,2013-04-18 02:32:00,
2013-04-17 22:42:00,74.0,66.0,30.08,ENE,70,3.0,5.0,77,99.99,,,-99.99,,2013-04-18 02:42:00,
2013-04-17 22:52:00,74.0,66.0,30.08,ENE,70,3.0,5.0,77,99.99,,,-99.99,,2013-04-18 02:52:00,
2013-04-17 23:02:00,72.0,67.0,30.08,ENE,73,5.0,8.0,83,99.99,,,-99.99,,2013-04-18 03:02:00,
2013-04-17 23:12:00,72.0,67.0,30.07,ENE,65,4.0,7.0,85,99.99,,,-99.99,,2013-04-18 03:12:00,
2013-04-17 23:22:00,72.0,67.0,30.07,ENE,65,4.0,7.0,85,99.99,,,-99.99,,2013-04-18 03:22:00,
2013-04-17 23:33:00,72.0,67.0,30.07,ESE,110,3.0,5.0,85,99.99,,,-99.99,,2013-04-18 03:33:00,
2013-04-17 23:43:00,71.0,67.0,30.07,East,79,3.0,5.0,87,99.99,,,-99.99,,2013-04-18 03:43:00,
2013-04-17 23:53:00,71.0,67.0,30.07,East,79,3.0,5.0,87,99.99,,,-99.99,,2013-04-18 03:53:00,